Location: Ayer Observatory
(42.2600°N, 71.0700°W)
Time: 19:25:43
(UTC-04:00)

XW-2A - Pass Details

Date: 21 July 2019
Orbit: 432 x 448 km, 97.3° (Epoch: 25 August)

Event Time Altitude Azimuth Distance (km) Brightness Sun altitude
Rises 21:25:09 0° 198° (SSW) 2,392 ? -11.5°
Reaches altitude 10° 21:27:32 10° 216° (SW) 1,531 ? -11.8°
Maximum altitude 21:30:00 20° 265° (W) 1,077 ? -12.1°
Drops below altitude 10° 21:32:29 10° 314° (NW) 1,544 ? -12.5°
Sets 21:34:55 0° 333° (NNW) 2,420 ? -12.8°
